Weather History for KSVN - February, 2013

Change the Weather History Date:

Saturday, February 16, 2013

  Actual Average Record
Temperature  
Mean Temperature 46 °F -  
Max Temperature 53 °F 64 °F 80 °F (2001)
Min Temperature 37 °F 42 °F 28 °F (2007)
Degree Days  
Heating Degree Days 19    
Moisture  
Dew Point 35 °F    
Average Humidity 71    
Maximum Humidity 95    
Minimum Humidity 32    
Precipitation  
Precipitation 0.02 in - - ()
Sea Level Pressure  
Sea Level Pressure 29.93 in    
Wind  
Wind Speed 8 mph (WNW)    
Max Wind Speed 29 mph    
Max Gust Speed 34 mph    
Visibility 10 miles    
Events Rain    
Averages and records for this station are not official NWS values.
T = Trace of Precipitation, MM = Missing Value Source: NWS Daily Summary

Daily Weather History Graph

Daily Weather History Graph

Search for Another Location

Airport or City:

Trip Planner

Search our weather history database for the weather conditions in past years. The results will help you decide how hot, cold, wet, or windy it might be!

Date:

Astronomy

Feb. 16, 2013 Rise Set
Actual Time 7:05 AM EST 6:12 PM EST
Civil Twilight 6:40 AM EST 6:37 PM EST
Nautical Twilight 6:12 AM EST 7:05 PM EST
Astronomical Twilight 5:43 AM EST 7:34 PM EST
Moon 10:43 AM EST (2/16) No Moon Set
Length of Visible Light 11h 56m
Length of Day
11h 06m
Waxing Crescent, 39% of the Moon is Illuminated
Feb 16
Waxing Crescent
Feb 17
First Quarter
Feb 25
Full
Mar 4
Last Quarter
Mar 11
New

Hourly Weather History & Observations

Time (EST) Temp. Windchill Dew Point Humidity Pressure Visibility Wind Dir Wind Speed Gust Speed Precip Events Conditions
12:58 AM 42.4 °F - 40.5 °F 93% 29.98 in 10.0 mi Calm Calm - N/A   Clear
1:58 AM 42.4 °F - 41.0 °F 95% 29.97 in 10.0 mi SW 2.3 mph - N/A   Clear
2:58 AM 43.7 °F - 41.5 °F 92% 29.95 in 10.0 mi South 1.2 mph - N/A   Clear
3:58 AM 44.1 °F - 42.4 °F 94% 29.92 in 10.0 mi WSW 2.3 mph - N/A   Clear
4:58 AM 44.4 °F 42.9 °F 41.5 °F 90% 29.91 in 10.0 mi SW 3.5 mph - N/A   Clear
5:58 AM 43.5 °F 39.4 °F 41.5 °F 93% 29.91 in 10.0 mi West 6.9 mph - N/A   Clear
6:58 AM 42.6 °F 40.9 °F 40.5 °F 92% 29.90 in 10.0 mi West 3.5 mph - N/A   Clear
7:58 AM 42.8 °F 38.6 °F 41.4 °F 95% 29.89 in 10.0 mi West 6.9 mph - N/A   Clear
8:58 AM 47.8 °F - 41.5 °F 79% 29.90 in 10.0 mi NW 6.9 mph - N/A   Clear
9:58 AM 51.8 °F - 40.5 °F 65% 29.90 in 10.0 mi NW 6.9 mph - N/A   Partly Cloudy
10:58 AM 53.2 °F - 39.9 °F 61% 29.91 in 10.0 mi NW 13.8 mph - N/A   Mostly Cloudy
11:58 AM 53.6 °F - 38.7 °F 57% 29.92 in 10.0 mi NW 20.7 mph 31.1 mph N/A   Overcast
12:18 PM 50.0 °F - 37.4 °F 62% 29.92 in 10.0 mi WNW 28.8 mph 34.5 mph N/A   Overcast
12:53 PM 44.6 °F 37.4 °F 33.8 °F 66% 29.94 in 10.0 mi WNW 16.1 mph 27.6 mph N/A   Overcast
12:58 PM 44.6 °F 37.8 °F 34.5 °F 68% 29.95 in 10.0 mi WNW 15.0 mph - N/A   Overcast
1:06 PM 44.6 °F 35.9 °F 35.6 °F 71% 29.94 in 10.0 mi WNW 23.0 mph 27.6 mph N/A Rain Light Rain
1:31 PM 42.8 °F 34.8 °F 37.4 °F 81% 29.93 in 10.0 mi WNW 17.3 mph 24.2 mph N/A Rain Light Rain
1:58 PM 41.2 °F 33.0 °F 36.9 °F 85% 29.92 in 10.0 mi NW 16.1 mph - 0.01 in Rain Light Rain
2:13 PM 42.8 °F 37.5 °F 39.2 °F 87% 29.89 in 10.0 mi North 9.2 mph - N/A Rain Light Rain
2:18 PM 42.8 °F 38.6 °F 39.2 °F 87% 29.89 in 10.0 mi NNW 6.9 mph - N/A   Partly Cloudy
2:48 PM 42.8 °F 37.0 °F 37.4 °F 81% 29.91 in 10.0 mi West 10.4 mph - N/A   Mostly Cloudy
2:58 PM 42.4 °F 36.1 °F 38.3 °F 85% 29.92 in 10.0 mi WNW 11.5 mph - 0.01 in   Overcast
3:48 PM 44.6 °F 38.4 °F 37.4 °F 76% 29.89 in 10.0 mi WNW 12.7 mph 19.6 mph N/A   Mostly Cloudy
3:58 PM 45.5 °F 39.9 °F 36.5 °F 71% 29.90 in 10.0 mi WNW 11.5 mph - N/A   Mostly Cloudy
4:03 PM 46.4 °F 41.9 °F 35.6 °F 66% 29.89 in 10.0 mi NW 9.2 mph - N/A   Mostly Cloudy
4:08 PM 46.4 °F 40.7 °F 37.4 °F 71% 29.89 in 10.0 mi WNW 12.7 mph - N/A   Mostly Cloudy
4:13 PM 48.2 °F - 35.6 °F 62% 29.89 in 10.0 mi WNW 10.4 mph - N/A   Mostly Cloudy
4:18 PM 46.4 °F 42.4 °F 37.4 °F 71% 29.89 in 10.0 mi WNW 8.1 mph - N/A   Mostly Cloudy
4:28 PM 48.2 °F - 37.4 °F 66% 29.89 in 10.0 mi West 11.5 mph - N/A   Mostly Cloudy
4:55 PM 46.4 °F 42.4 °F 35.6 °F 66% 29.89 in 10.0 mi WNW 8.1 mph - N/A Rain Light Rain
4:58 PM 46.4 °F 41.1 °F 35.6 °F 66% 29.90 in 10.0 mi WNW 11.5 mph - N/A Rain Light Rain
5:07 PM 48.2 °F - 35.6 °F 62% 29.89 in 10.0 mi West 13.8 mph 17.3 mph N/A   Partly Cloudy
5:58 PM 44.6 °F 40.2 °F 35.6 °F 71% 29.92 in 10.0 mi West 8.1 mph - 0.00 in   Scattered Clouds
6:58 PM 41.4 °F 35.7 °F 35.8 °F 81% 29.94 in 10.0 mi West 9.2 mph - N/A   Mostly Cloudy
7:58 PM 44.6 °F 37.4 °F 17.1 °F 33% 29.97 in 10.0 mi WNW 16.1 mph - N/A   Partly Cloudy
8:58 PM 43.3 °F 35.5 °F 15.3 °F 32% 30.02 in 10.0 mi WNW 17.3 mph 26.5 mph N/A   Clear
9:58 PM 41.2 °F 32.7 °F 14.9 °F 34% 30.06 in 10.0 mi WNW 17.3 mph 21.9 mph N/A   Clear
10:58 PM 39.7 °F 31.2 °F 11.7 °F 32% 30.09 in 10.0 mi WNW 16.1 mph 26.5 mph N/A   Clear
11:58 PM 37.9 °F 29.6 °F 12.7 °F 36% 30.10 in 10.0 mi WNW 13.8 mph - N/A   Clear